Buenos Aires, Argentina

4:38 AM America en Julio 27, 2017 (GMT +0000)
Jorge Newbery Aeroparque

Tiempo Historia de SABE - Marzo, 2017

Change the Weather History Date:

Lunes, Marzo 20, 2017

  Actual Average Record
Temperature  
Temperatura media 69 ° F -  
Temperatura máxima 72 ° F 73 ° F 90 ° F (2015)
Temperatura mínima 66 ° F 60 ° F 60 ° F (2002)
Cooling Degree Days 4    
Growing Degree Days 19 (Base 50)    
Moisture  
Punto de rocío 60 ° F    
Average Humidity 70    
Maximum Humidity 83    
Minimum Humidity 53    
Precipitación  
Precipitación 0.00 pul 0.13 pul - ()
Presión al nivel del mar  
Presión al nivel del mar 30.22 pul    
Viento  
Velocidad del viento 10 mph ()    
Velocidad máxima del viento 17 mph    
Max Gust Speed -    
Visibilidad 6.1 Millas    
Eventos      
Averages and records for this station are not official NWS values.
T = Trace of Precipitation, MM = Missing Value Source: Averaged Metar Reports

Daily Weather History Graph

Daily Weather History Graph

Search for Another Location

Airport or City:

Trip Planner

Search our weather history database for the weather conditions in past years. The results will help you decide how hot, cold, wet, or windy it might be!

Date:

Astronomía

Mar. 20, 2017 Salida Puesta
Hora real 6:57 AM -03 7:04 PM -03
Crepúsculo civil 6:31 AM -03 7:29 PM -03
Crepúsculo náutico 6:02 AM -03 7:58 PM -03
Crepúsculo astronómico 5:32 AM -03 8:28 PM -03
Luna Sin salida de luna 1:56 PM -03 (3/20)
Horas de luz 12h 57m
Horas de luz
12h 07m
Gibosa menguante, 50% of the Moon is Illuminated
Mar 20
Gibosa menguante
Mar 20
Cuarto menguante
Mar 27
Nueva
Abr 3
Cuarto creciente
Abr 11
Luna llena

Hourly Weather History & Observations

Hora (-03) Temp. Punto de rocío Humedad Presión Visibilidad Wind Dir Velocidad del viento Velocidad de ráfagas Precip Eventos Condiciones
12:00 AM 71 ° F 63 ° F 69% 30.20 pul 6 mi ESE 15.0 mph - -  
12:00 AM 68.0 ° F 62.6 ° F 83% 30.18 pul - ENE 12.7 mph - N/A   Despejado
1:00 AM 69.8 ° F 62.6 ° F 78% 30.18 pul - Este 15.0 mph - N/A   Despejado
3:00 AM 68 ° F 59 ° F 67% 30.20 pul 6 mi NE 10.4 mph - -  
3:00 AM 68.0 ° F 59.0 ° F 73% 30.18 pul - NNE 10.4 mph - N/A   Despejado
4:00 AM 68.0 ° F 59.0 ° F 73% 30.18 pul - NNE 9.2 mph - N/A   Despejado
5:00 AM 66.2 ° F 59.0 ° F 78% 30.21 pul - NNE 8.1 mph - N/A   Despejado
6:00 AM 66 ° F 58 ° F 68% 30.23 pul 6 mi Norte 6.9 mph - -  
6:00 AM 66.2 ° F 57.2 ° F 73% 30.21 pul - Norte 6.9 mph - N/A   Despejado
7:00 AM 66.2 ° F 57.2 ° F 73% 30.24 pul - NNE 4.6 mph - N/A   Despejado
8:00 AM 68.0 ° F 59.0 ° F 73% 30.24 pul 6.2 mi ENE 5.8 mph - N/A   Parcialmente nublado
9:00 AM 69 ° F 58 ° F 59% 30.27 pul 6 mi ENE 6.9 mph - -   Despejado
9:00 AM 69.8 ° F 57.2 ° F 64% 30.27 pul - ENE 6.9 mph - N/A   Despejado
10:00 AM 69.8 ° F 59.0 ° F 68% 30.27 pul - Este 8.1 mph - N/A   Despejado
11:00 AM 71.6 ° F 59.0 ° F 64% 30.27 pul - Este 8.1 mph - N/A   Despejado
12:00 PM 72 ° F 60 ° F 56% 30.26 pul 6 mi ESE 11.5 mph - -   Despejado
12:00 PM 71.6 ° F 59.0 ° F 64% 30.24 pul - ESE 11.5 mph - N/A   Despejado
1:00 PM 71.6 ° F 59.0 ° F 64% 30.24 pul - ESE 13.8 mph - N/A   Despejado
2:00 PM 71.6 ° F 57.2 ° F 60% 30.21 pul - ESE 15.0 mph - N/A   Despejado
3:00 PM 72 ° F 58 ° F 53% 30.22 pul 6 mi ESE 13.8 mph - -   Despejado
3:00 PM 71.6 ° F 59.0 ° F 64% 30.21 pul - ESE 13.8 mph - N/A   Despejado
4:00 PM 71.6 ° F 59.0 ° F 64% 30.21 pul - ESE 13.8 mph - N/A   Despejado
6:00 PM 71 ° F 60 ° F 61% 30.21 pul 6 mi ESE 15.0 mph - -   Despejado
6:00 PM 69.8 ° F 60.8 ° F 73% 30.21 pul - ESE 15.0 mph - N/A   Despejado
7:00 PM 69.8 ° F 62.6 ° F 78% 30.18 pul - ESE 15.0 mph - N/A   Despejado
8:00 PM 69.8 ° F 62.6 ° F 78% 30.21 pul 6.2 mi ESE 13.8 mph - N/A   Muy nublado
9:00 PM 69 ° F 64 ° F 77% 30.22 pul 6 mi ESE 16.1 mph - -   Parcialmente nublado
9:00 PM 69.8 ° F 64.4 ° F 83% 30.21 pul 6.2 mi ESE 16.1 mph - N/A   Muy nublado
10:00 PM 69.8 ° F 64.4 ° F 83% 30.21 pul 6.2 mi ESE 16.1 mph - N/A   Nubes dispersas
11:00 PM 69.8 ° F 64.4 ° F 83% 30.21 pul 6.2 mi ESE 17.3 mph - N/A   Nubes dispersas